STARLINK-36899, 68058

Orbit data source: Space-Track

STARLINK-36899, 68058 is a payload satellite owned by SpaceX/Seattle (US) in LEO that was launched on Mon, 02 Mar 2026 UTC via an FALCON 9 launch vehicle from the Air Force Eastern Test Range (AFETR). Payload-class satellites include a variety of spacecraft equipped with specific instruments for various scientific and technological missions. These include communications satellites like Starlink; space stations such as the ISS; scientific satellites like the Hubble; Earth observation satellites from companies like Planet Labs, Umbra, and HawkEye 360; GPS; miniature CubeSats for education and research; and military/defense satellites.

Loading next visibility...
Identifier
68058, 2026-041U
Orbit
LEO
Country
Flag of USUS
Related business
Manufacturer
SpaceX/Seattle
Mission
Operational spacecraft
Bus & Motor
STARLINK V2MO, Unknown motor
Mass
575 kg wet, ~530 kg dry
Launch date (UTC)
2026-03-02 (1 month ago)
Launch vehicle
FALCON 9
Launch site
Air Force Eastern Test Range (AFETR)
Object type
Payload
Rocket body
Debris
Shape & HBR
Unknown shape, 17.7 m
Radar Cross Section
RCS unknown

Expand to show TLE details & history
Last TLE update: 12 hours ago

TLE from 12 hours ago
0 STARLINK-36899
1 68058U 26041U   26105.08460587  .00029008  00000-0  52725-3 0  9995
2 68058  53.1603 242.0413 0001285  79.2579 280.8575 15.49332382  6942
Epoch: 2026-04-15T02:01Z
TLE epoch observation values (Epoch: 2026-04-15T02:01:49.947Z)
Latitude
0.00002°
Longitude
8.33162°
Altitude
419.421 km
Speed
7.661 km/s
True Right ascension
16h 08m 09s
True Declination
0° 00' 00"
Sunlit
Object was in full shadow at epoch
Visualization orbit readout
Latitude
Unknown
Longitude
Unknown
Altitude
Unknown
Speed
Unknown
Apparent Right ascension
Unknown
Apparent Declination
Unknown
Sunlit
N/A
Visualization observer readout
Local Sidereal Time
20:38:25
Azimuth
Unknown
Elevation
Unknown
Doppler factor
Unknown
Orbital elements
Apogee altitude
419.81 km
Perigee altitude
418.063 km
Semi-major axis
6,797.073 km
Eccentricity
0.00013
Inclination
53.1603°
RAAN
242.0413°
Arg. of periapsis
79.2579°
True anomaly
280.84304°
Mean anomaly
280.8575°
Eccentric anomaly
280.85027°
Mean motion
3.87311 °/min
Orbital period
92.95 mins
BSTAR
0.00052725
Loading maneuver chart data...
Computing Atmospheric mass density...
Loading historical data...
Loading historical data...
Loading historical data...
Loading historical data...
Loading historical data...
Loading historical data...
Loading historical data...

Documentation

Showing up to 5 results
|